Torna al catalogo

STARLINK-37857

AttivoComunicazioniSSO
NORAD 69429·PAYLOAD·🇺🇸 United States

Lanciato Jun 7, 2026 da Vandenberg Space Force Base

Loading…

Prossimi Passaggi (prossime 24 ore)

TLE

AggiornatoSource: CelesTrak SupGP

Epoca: Sep 14, 2026, 15:56 UTC

1 69429C 26126K   26257.66437500 -.00067027  00000+0 -20807-2 0  2579
2 69429  97.2845 119.0007 0002340  91.2483 183.4524 15.33470615    14

Traccia STARLINK-37857 in tempo reale con AllMySat

Download on the App Store